Epoch 2005 July 9.0 TT = JDT 2453560.5
T 2005 July 19.9161 TT MPCN
q 1.707303 (2000.0) P Q
n 0.1426007 Peri. 95.6498 +0.6940963 -0.7070813
a 3.628454 Node 309.4433 +0.5715812 +0.6554420
e 0.529468 Incl. 10.0793 +0.4376361 +0.2653898
P 6.91
From 50 observations 1991-1999, mean residual 0".7.